Change the Weather History Date:

Friday, November 8, 2013

  Actual Average Record
Temperature  
Mean Temperature 65 °F -  
Max Temperature 73 °F 61 °F - ()
Min Temperature 57 °F 45 °F - ()
Growing Degree Days 15 (Base 50)    
Moisture  
Dew Point 59 °F    
Average Humidity 82    
Maximum Humidity 94    
Minimum Humidity 65    
Precipitation  
Precipitation 0.00 in 0.20 in - ()
Sea Level Pressure  
Sea Level Pressure 30.10 in    
Wind  
Wind Speed 3 mph ()    
Max Wind Speed 8 mph    
Max Gust Speed -    
Visibility 6.2 miles    
Events      
T = Trace of Precipitation, MM = Missing Value Source: Averaged Metar Reports

Daily Weather History Graph

Daily Weather History Graph

Search for Another Location

Airport or City:

Trip Planner

Search our weather history database for the weather conditions in past years. The results will help you decide how hot, cold, wet, or windy it might be!

Date:

Astronomy

Nov. 08, 2013 Rise Set
Actual Time 6:41 AM CET 4:50 PM CET
Civil Twilight 6:12 AM CET 5:19 PM CET
Nautical Twilight 5:39 AM CET 5:52 PM CET
Astronomical Twilight 5:07 AM CET 6:24 PM CET
Moon 11:24 AM CET (11/8) 9:51 PM CET (11/8)
Length of Visible Light 11h 07m
Length of Day
10h 09m
Waxing Crescent, 30% of the Moon is Illuminated
Nov 8
Waxing Crescent
Nov 10
First Quarter
Nov 17
Full
Nov 25
Last Quarter
Dec 3
New

Hourly Weather History & Observations

Time (CET) Temp. Dew Point Humidity Pressure Visibility Wind Dir Wind Speed Gust Speed Precip Events Conditions
12:20 AM 64.4 °F 60.8 °F 88% 30.12 in 6.2 mi South 2.3 mph - N/A   Mostly Cloudy
12:50 AM 62.6 °F 59.0 °F 88% 30.12 in 6.2 mi Calm Calm - N/A   Mostly Cloudy
1:20 AM 62.6 °F 57.2 °F 82% 30.12 in 6.2 mi SW 3.5 mph - N/A   Mostly Cloudy
1:50 AM 62.6 °F 57.2 °F 82% 30.12 in 6.2 mi SW 3.5 mph - N/A   Mostly Cloudy
2:20 AM 64.4 °F 59.0 °F 83% 30.12 in 6.2 mi SSW 3.5 mph - N/A   Mostly Cloudy
2:50 AM 60.8 °F 57.2 °F 88% 30.12 in 6.2 mi Variable 2.3 mph - N/A   Mostly Cloudy
3:20 AM 60.8 °F 57.2 °F 88% 30.12 in 6.2 mi West 3.5 mph - N/A   Mostly Cloudy
3:50 AM 62.6 °F 59.0 °F 88% 30.09 in 6.2 mi South 1.2 mph - N/A   Mostly Cloudy
4:20 AM 60.8 °F 57.2 °F 88% 30.12 in 6.2 mi Calm Calm - N/A   Mostly Cloudy
4:50 AM 62.6 °F 59.0 °F 88% 30.09 in 6.2 mi SSW 2.3 mph - N/A   Mostly Cloudy
5:20 AM 64.4 °F 60.8 °F 88% 30.12 in 6.2 mi SSW 2.3 mph - N/A   Mostly Cloudy
5:50 AM 64.4 °F 60.8 °F 88% 30.09 in - North - - N/A   Unknown
6:20 AM 62.6 °F 59.0 °F 88% 30.12 in 6.2 mi Calm Calm - N/A   Mostly Cloudy
6:50 AM 64.4 °F 60.8 °F 88% 30.12 in 6.2 mi Calm Calm - N/A   Mostly Cloudy
7:20 AM 64.4 °F 59.0 °F 83% 30.12 in 6.2 mi Calm Calm - N/A   Mostly Cloudy
7:50 AM 66.2 °F 60.8 °F 83% 30.12 in 6.2 mi Calm Calm - N/A   Mostly Cloudy
8:20 AM 66.2 °F 60.8 °F 83% 30.12 in 6.2 mi Variable 1.2 mph - N/A   Mostly Cloudy
8:50 AM 68.0 °F 60.8 °F 78% 30.12 in 6.2 mi South 4.6 mph - N/A   Mostly Cloudy
9:20 AM 68.0 °F 60.8 °F 78% 30.12 in 6.2 mi SSW 6.9 mph - N/A   Mostly Cloudy
9:50 AM 68.0 °F 60.8 °F 78% 30.12 in 6.2 mi SSW 6.9 mph - N/A   Mostly Cloudy
10:20 AM 69.8 °F 62.6 °F 78% 30.12 in 6.2 mi SSW 6.9 mph - N/A   Mostly Cloudy
11:20 AM 69.8 °F 60.8 °F 73% 30.12 in 6.2 mi SSW 6.9 mph - N/A   Mostly Cloudy
11:50 AM 71.6 °F 62.6 °F 73% 30.12 in 6.2 mi SW 8.1 mph - N/A   Mostly Cloudy
12:20 PM 71.6 °F 62.6 °F 73% 30.09 in 6.2 mi SSW 8.1 mph - N/A   Mostly Cloudy
12:50 PM 69.8 °F 60.8 °F 73% 30.09 in 6.2 mi SSW 8.1 mph - N/A   Mostly Cloudy
1:20 PM 73.4 °F 60.8 °F 65% 30.09 in 6.2 mi SSW 8.1 mph - N/A   Mostly Cloudy
1:50 PM 71.6 °F 60.8 °F 69% 30.09 in 6.2 mi SSW 8.1 mph - N/A   Mostly Cloudy
2:20 PM 71.6 °F 60.8 °F 69% 30.09 in 6.2 mi SSW 6.9 mph - N/A   Mostly Cloudy
2:50 PM 71.6 °F 60.8 °F 69% 30.09 in 6.2 mi SSW 8.1 mph - N/A   Mostly Cloudy
3:20 PM 69.8 °F 60.8 °F 73% 30.09 in 6.2 mi SSW 6.9 mph - N/A   Scattered Clouds
3:50 PM 69.8 °F 60.8 °F 73% 30.09 in 6.2 mi SSW 5.8 mph - N/A   Scattered Clouds
4:20 PM 68.0 °F 60.8 °F 78% 30.09 in 6.2 mi SSW 5.8 mph - N/A   Scattered Clouds
4:50 PM 66.2 °F 59.0 °F 78% 30.09 in 6.2 mi Variable 1.2 mph - N/A   Scattered Clouds
5:20 PM 64.4 °F 59.0 °F 83% 30.09 in 6.2 mi WSW 4.6 mph - N/A   Partly Cloudy
5:50 PM 66.2 °F 59.0 °F 78% 30.12 in - WSW 3.5 mph - N/A   Clear
6:20 PM 66.2 °F 59.0 °F 78% 30.12 in - WSW 2.3 mph - N/A   Clear
6:50 PM 66.2 °F 60.8 °F 83% 30.09 in - West 2.3 mph - N/A   Clear
7:20 PM 62.6 °F 59.0 °F 88% 30.09 in - Calm Calm - N/A   Clear
7:50 PM 62.6 °F 59.0 °F 88% 30.09 in - Variable 2.3 mph - N/A   Clear
8:20 PM 62.6 °F 59.0 °F 88% 30.09 in - Calm Calm - N/A   Clear
8:50 PM 60.8 °F 57.2 °F 88% 30.09 in - NE 1.2 mph - N/A   Clear
9:20 PM 60.8 °F 59.0 °F 94% 30.09 in - Calm Calm - N/A   Clear
9:50 PM 60.8 °F 57.2 °F 88% 30.09 in - Variable 1.2 mph - N/A   Clear
10:20 PM 59.0 °F 55.4 °F 88% 30.09 in - Variable 2.3 mph - N/A   Clear
10:50 PM 60.8 °F 57.2 °F 88% 30.09 in - Variable 1.2 mph - N/A   Clear
11:20 PM 57.2 °F 55.4 °F 94% 30.09 in - North 1.2 mph - N/A   Clear
11:50 PM 59.0 °F 55.4 °F 88% 30.09 in 5.0 mi NE 3.5 mph - N/A   Unknown